FENGYUN 1C DEB

Satellite information

Favourite Embed

Satellite Type and Status

DEBRISIN ORBIT

Key statistics

Satellite FENGYUN 1C DEB at a glance.

Uptime

9715

Days in orbit

Revolutions

≈ 14.1

Per day

Orbit

SSO

Sun Synchronous Orbit

Inclination

98.7

Latest

Satellite identification and parameters

Extended collection of information and parameters for FENGYUN 1C DEB.

Object identification

Identified? True

Debris? True

Object name: FENGYUN 1C DEB

International designator: 1999-025DPH

Object number (NORAD): 35201

Object ID (CCSDS): 35201

Country: PEOPLES REPUBLIC OF CHINA (PRC)

Current information (Y/N): Y

RCS size: SMALL

Orbital parameters

Period: 102.051 minutes

Inclination: 98.708 deg

SMA: 7233.908 km

Apoapsis: 860.008 km

Periapsis: 851.538 km

RAAN: 356.2938 deg

Eccentricy: 0.00058546

Argument of periapsis: 247.5151 deg

Mean anomaly: 127.9591 deg

Mean motion: 14.11052804 rev/day

Mean motion (dot): 0.00000214 rev/day2

B* drag term: 0.00014250021 1/REarth

Two-line elements (TLE)

Creation date: Dec. 13, 2025, 5:47 p.m.

Reference frame: TEME

Reference center: EARTH

Epoch: Dec. 13, 2025, 6:34 a.m. UTC

TLE line 0: 0 FENGYUN 1C DEB

TLE line 1: 1 35201U 99025DPH 25347.27382299 .00000214 00000-0 14250-3 0 9991

TLE line 2: 2 35201 98.7080 356.2938 0005855 247.5151 127.9591 14.11052804870273

Live tracking on map

Real-time ground track for satellite FENGYUN 1C DEB.

In-orbit conjunctions

A list of the most updated potential collisions computed for object FENGYUN 1C DEB.

Target Orbit TCA Probability of collision Miss distance Type
FENGYUN 1C DEB SSO 2025-01-11 06:13:32 0.0001716062 120.0 (m) DEBRIS
FENGYUN 1C DEB SSO 2024-09-27 22:05:35 0.0001649966 763.0 (m) DEBRIS
SL-16 DEB LEO 2024-09-21 14:21:09 0.0001176744 127.0 (m) DEBRIS

Associated space launch

Chinese polar orbiting meteorological satellite

FENGYUN 1C DEB was lifted into orbit during the mission ‘Long March 4B | Feng Yun 1C’, on board a Long March 4B space rocket.

The launch took place on May 10, 1999, 1:33 a.m. from Launch Complex 7.

For more information about the launch, click the button.

Launch to space Long March 4B | Feng Yun 1C
Long March 4B | Feng Yun 1C

Agency: N/A

Status: Launch Successful

Launch date: May 10, 1999, 1:33 a.m. UTC

Rocket: Long March 4B

Launch pad: Launch Complex 7

Location: Taiyuan Satellite Launch Center, People's Republic of China

...

Latest news about this satellite

There are no fresh news available about this satellite. Check back as we update our databases every day.


Newsletter sign-up

Weekly statistics, charts and insights to help you stay on top of the space industry.